Regional Weather Roundup
Issued by NWS

Home | Current Version | Previous Version | Graphics & Text | Print | Product List | Glossary On
Versions: 1 2 3 4 5 6 7 8 9 10 11 12 13 14 15 16 17 18 19 20 21 22 23 24 25 26 27 28 29 30 31 32 33 34 35 36 37 38 39 40 41 42 43 44 45 46 47 48 49 50
000
ASUS43 KMPX 091101
RWRMN
WEATHER ROUNDUP FOR MINNESOTA
NATIONAL WEATHER SERVICE TWIN CITIES/CHANHASSEN MN
500 AM CST FRI DEC 09 2016


NOTE: "FAIR" INDICATES FEW OR NO CLOUDS BELOW 12,000 FEET WITH NO
SIGNIFICANT WEATHER AND/OR OBSTRUCTIONS TO VISIBILITY. N/A MEANS
CURRENT SKY AND/OR WEATHER CONDITIONS ARE NOT AVAILABLE.

MNZ060>063-068>070-091200-
   Twin Cities Metro

CITY           SKY/WX    TMP DP  RH WIND       PRES   REMARKS
TWIN CITIES    CLOUDY    14   9  80 W7        30.54S WCI   4
ST PAUL        CLOUDY    16  11  80 NW8       30.56S WCI   5
CRYSTAL        CLOUDY    15   7  70 W8        30.53S WCI   4
BLAINE         CLOUDY    16  10  79 W5        30.52F WCI   9
LAKEVILLE      CLOUDY     9   9 100 W5        30.54S WCI   0
EDEN PRAIRIE   CLOUDY    13   9  84 SW5       30.53F WCI   5
SOUTH ST PAUL  CLOUDY    17  11  78 W6        30.54S WCI   9
LAKE ELMO      CLOUDY    16  12  86 NW8       30.54R WCI   5
$$
MNZ001>005-007-008-013>017-022>024-027-028-091200-
   Northwest Minnesota

CITY           SKY/WX    TMP DP  RH WIND       PRES   REMARKS
BEMIDJI        CLOUDY     4   0  82 NW6       30.49S WCI  -7
HALLOCK        CLOUDY     7   1  78 N8        30.55F WCI  -6
ROSEAU         CLOUDY     3   0  85 W5        30.52F WCI  -6
WARROAD        CLOUDY     3  -2  78 NW9       30.51F WCI -11
THIEF RVR FALL FLURRIES   6   2  83 CALM      30.53F
CROOKSTON      FLURRIES   9   3  78 NW12      30.56F WCI  -6
FOSSTON        CLOUDY     3   0  85 CALM      30.52S
DETROIT LAKES  FLURRIES   7   5  92 W5        30.51F WCI  -2
MOORHEAD       MIX PCPN   7   1  78 W6        30.57S WCI  -3
PARK RAPIDS    CLOUDY     7   1  76 NW8       30.48F WCI  -6
$$
MNZ006-009>011-018-025>026-091200-
   North Central Minnesota

CITY           SKY/WX    TMP DP  RH WIND       PRES   REMARKS
BAUDETTE       CLOUDY     4  -4  69 W16       30.48F WCI -15
FLAG ISLAND    CLOUDY     1  -2  85 W13       30.49F WCI -16
INTL FALLS     CLOUDY     8   3  80 W7        30.46S WCI  -3
WASKISH        CLOUDY     5   1  85 NW9       30.49F WCI  -9
BIG FORK       CLOUDY     7   1  78 CALM      30.47S
LONGVILLE      CLOUDY     9   3  78 NW5       30.48F WCI   0
GRAND RAPIDS   CLOUDY     6   3  87 NW10      30.48S WCI  -9
CRANE LAKE     FLURRIES   9   5  85 W6        30.46S WCI  -1
ORR            CLOUDY     9   3  78 CALM      30.41S
COOK           CLOUDY     9   5  85 NW7       30.44S WCI  -3
$$
MNZ012-019>021-037-091200-
   Northeast Minnesota

CITY           SKY/WX    TMP DP  RH WIND       PRES   REMARKS
DULUTH         LGT SNOW  12   7  80 NW7       30.42F WCI   1
ELY            FLURRIES  10   7  85 W5        30.40S WCI   2
HIBBING        MOCLDY     8   2  76 NW9       30.44F WCI  -5
EVELETH        FLURRIES  12   6  77 NW13G20   30.44F WCI  -3
DULUTH HARBOR  CLOUDY    18   9  68 CALM      30.51S
TWO HARBORS    CLOUDY    16   9  73 W7        30.43S WCI   6
SILVER BAY     CLOUDY     9   7  92 CALM      30.42S
GRAND MARAIS     N/A     15   9  76 W3        30.45R
G MARAIS ARPRT CLOUDY     7   1  78 NW3       30.33S
$$
MNZ029>031-032-039>041-046>048-054>057-064-091200-
   West Central Minnesota

CITY           SKY/WX    TMP DP  RH WIND       PRES   REMARKS
FERGUS FALLS   CLOUDY     3   0  85 NW7       30.60F WCI  -9
WHEATON        CLOUDY     3  -2  78 W7        30.59F WCI  -9
MORRIS         CLOUDY     3  -2  78 NW7       30.54F WCI  -9
ALEXANDRIA     CLOUDY     5   2  87 W8        30.51F WCI  -8
ELBOW LAKE     FLURRIES   3  -1  86 NW6       30.55F WCI  -8
WADENA         FLURRIES   7   3  85 W7        30.49F WCI  -5
GLENWOOD       CLOUDY     1   0  92 W5        30.52F WCI  -8
APPLETON       CLEAR      1  -4  78 W5        30.58F WCI  -8
BENSON         FLURRIES   5   0  78 N7        30.55F WCI  -7
ORTONVILLE     CLEAR      0  -6  78 CALM      30.57F
MADISON        CLEAR      1  -2  85 W5        30.58F WCI  -8
WILLMAR        FAIR       1   0  92 W5        30.56F WCI  -8
$$
MNZ033>034-036-042>043-049>051-058-059-091200-
   Central Minnesota

CITY           SKY/WX    TMP DP  RH WIND       PRES   REMARKS
ST CLOUD       CLOUDY    10   6  84 W8        30.52F WCI  -2
PAYNESVILLE    CLEAR      2  -1  87 W7        30.55S WCI -10
AITKIN         MIX PCPN  12   7  79 CALM      30.47S
PINE RIVER     CLOUDY     9   5  85 CALM      30.51S
BRAINERD       CLOUDY    10   5  80 NW8       30.49F WCI  -2
STAPLES        FLURRIES   9   5  85 W6        30.50S WCI  -1
LONG PRAIRIE   FAIR       1   0  92 CALM      30.51F
LITTLE FALLS   CLEAR      9   3  78 W5        30.52F WCI   0
LITCHFIELD     CLEAR      7   3  85 W8        30.55S WCI  -6
BUFFALO        CLOUDY    13   8  83 W8        30.54F WCI   1
MAPLE LAKE     CLOUDY    12   9  86 W5        30.54S WCI   4
HUTCHINSON     MOCLDY     8   4  86 W9        30.55F WCI  -6
$$
MNZ037-044-045-052-053-091200-
   East Central Minnesota

CITY           SKY/WX    TMP DP  RH WIND       PRES   REMARKS
PRINCETON      CLOUDY    16  10  79 W5        30.51S WCI   9
MORA           CLOUDY    14  10  85 W6        30.51F WCI   5
CAMBRIDGE      CLOUDY    16   7  67 CALM      30.50S
RUSH CITY      CLOUDY    14  10  85 W5        30.52S WCI   6
MOOSE LAKE     FLURRIES  14  10  85 NW6       30.46S WCI   5
HINCKLEY       CLOUDY    14  12  92 W5        30.49S WCI   6
CLOQUET        FLURRIES  12   7  79 NW3       30.44S
MCGREGOR       MOCLDY    12   9  85 NW7       30.48S WCI   2
$$
MNZ071>073-080-081-089-090-097-098-091200-
   Southwest Minnesota

CITY           SKY/WX    TMP DP  RH WIND       PRES   REMARKS
MONTEVIDEO     CLEAR      0  -2  92 NW7       30.60S WCI -13
GRANITE FALLS  CLEAR      1  -3  83 W6        30.60S WCI -10
CANBY          CLEAR      1  -3  81 CALM      30.58F
MARSHALL       CLEAR      0  -5  79 W7        30.58S WCI -13
REDWOOD FALLS  CLEAR      2  -3  80 W7        30.58F WCI -11
OLIVIA         CLEAR      3   0  85 NW7       30.56F WCI  -9
PIPESTONE      CLEAR      0  -4  85 NW5       30.52S WCI -10
WINDOM         CLEAR      1  -2  85 CALM      30.54F
WORTHINGTON    CLEAR      1  -3  83 W6        30.53F WCI -10
JACKSON        CLEAR      3   0  85 NW5       30.54F WCI  -6
TRACY          CLEAR      3  -1  84 W3        30.56S
SLAYTON        CLEAR      1  -2  85 W5        30.54S WCI  -8
$$
MNZ065>067-074>077-082>085-091>093-091200-
   South Central Minnesota

CITY           SKY/WX    TMP DP  RH WIND       PRES   REMARKS
MANKATO        FLURRIES   7   3  84 NW9       30.57S WCI  -7
NEW ULM          N/A      3   0  85 W6        30.57F WCI  -8
ST JAMES       CLEAR      5   1  85 W8        30.58F WCI  -8
GLENCOE        CLOUDY    10   8  89 W7        30.55S WCI  -1
OWATONNA       FLURRIES  10   7  85 W9        30.53F WCI  -2
WASECA         FLURRIES  12   9  85 W10       30.56S WCI  -1
ALBERT LEA     FLURRIES  16  10  79 NW8       30.53S WCI   5
$$
MNZ078>079-086>088-094>096-091200-
   Southeast Minnesota

CITY           SKY/WX    TMP DP  RH WIND       PRES   REMARKS
ROCHESTER      MOCLDY    11   8  88 W10       30.51R WCI  -3
RED WING       PTCLDY    14  10  85 CALM      30.53S
STANTON        FLURRIES  12   8  84 W6        30.54S WCI   3
DODGE CENTER   FLURRIES  10   9  92 W9        30.51S WCI  -2
WINONA           N/A     19  14  79 W6        30.53S WCI  11
AUSTIN         LGT SNOW  12   9  85 NW9       30.52F WCI   0
PRESTON        CLOUDY    12   9  86 NW10      30.52R WCI  -1
$$
ABBREVIATIONS USED IN REMARKS
   TC - TEMPERATURES IN CELSIUS
  WCI - WIND CHILL INDEX
   HX - HEAT INDEX
  VSB - VISIBILITY
$$



USA.gov is the U.S. government's official web portal to all federal, state and local government web resources and services.